Torna al catalogo

ATLAS 75E R/B

AttivoHEO
NORAD 14190·ROCKET BODY·🇺🇸 United States

Lanciato Jul 14, 1983 da Vandenberg Space Force Base

Loading…

Prossimi Passaggi (prossime 24 ore)

TLE

AggiornatoSource: Space-Track

Epoca: Sep 13, 2026, 08:54 UTC

1 14190U 83072B   26256.37123610 -.00000005  00000-0  36169-2 0  9992
2 14190  64.2990 280.2673 5488416 330.6152   7.4321  3.86839956610125

Traccia ATLAS 75E R/B in tempo reale con AllMySat

Download on the App Store